Regional Weather Roundup
Issued by NWS Jackson, KY

Home | Current Version | Previous Version | Text Only | Print | Product List | Glossary On
Versions: 1 2 3 4 5 6 7 8 9 10 11 12 13 14 15 16 17 18 19 20 21 22 23 24 25 26 27
000
ASUS43 KJKL 221410
RWRJKL

EAST KENTUCKY HOURLY WEATHER ROUNDUP
NATIONAL WEATHER SERVICE JACKSON KY
1000 AM EDT FRI SEP 22 2017

NOTE: "FAIR" INDICATES FEW OR NO CLOUDS BELOW 12,000 FEET WITH
NO SIGNIFICANT WEATHER AND/OR OBSTRUCTIONS TO VISIBILITY.

* THESE REPORTS ARE NOT UNDER NWS QUALITY CONTROL AND MAY NOT
  REPORT WEATHER SUCH AS PRECIPITATION AND FOG.

KYZ079-080-083-085-087-088-110-112-115-119-120-221500
...EASTERN KENTUCKY...

CITY           SKY/WX    TMP DP  RH WIND       PRES   REMARKS
JACKSON        SUNNY     74  68  81 CALM      30.15R
LONDON         SUNNY     73  66  78 NE3       30.14R
SOMERSET*      SUNNY     72  68  88 CALM      30.14S
MONTICELLO*    SUNNY     70  69  97 VRB6      30.15R
WILLIAMSBURG*  PTSUNNY   66  66 100 CALM      30.14S
MIDDLESBORO*   CLOUDY    64  64 100 CALM      30.16R FOG
HARLAN APT*    CLOUDY    64  63  94 CALM      30.16F
PIKE CO APT*   FOG       66  66 100 CALM      30.16R VSB 1/2
BIG SANDY APT* MOSUNNY   69  69 100 CALM      30.15S
MOREHEAD APT*  SUNNY     73  66  78 CALM      30.16R
$$

KYZ035-036-041-042-044-050-067-078-099-221500
...CENTRAL KENTUCKY...

CITY           SKY/WX    TMP DP  RH WIND       PRES   REMARKS
MT STERLING*   SUNNY     73  68  83 CALM      30.16R
FLEMING/MASON* SUNNY     73  68  84 CALM      30.15S
DANVILLE*      SUNNY     73  68  83 CALM      30.15R
LEXINGTON      SUNNY     78  69  73 NE3       30.14R
FRANKFORT      SUNNY     76  67  73 CALM      30.12S
LOUISVILLE     MOSUNNY   78  70  76 S3        30.11R
LEBANON*         N/A     75  68  78 CALM      30.13S
GLASGOW*       SUNNY     75  69  81 NE3       30.11S
BOWLING GREEN  SUNNY     76  71  85 E3        30.10S
$$

KYZ091>093-OHZ055-061-077-WVZ005-015-034-035-042-221500
...SOUTHERN OHIO/WEST VIRGINIA...

CITY           SKY/WX    TMP DP  RH WIND       PRES   REMARKS
COVINGTON      MOSUNNY   80  70  71 CALM      30.13S
COLUMBUS       MOSUNNY   76  67  73 SE3       30.14R
DAYTON         MOSUNNY   78  68  71 CALM      30.15R
WILMINGTON     SUNNY     77  69  76 CALM      30.14S
HUNTINGTON     SUNNY     71  66  84 E3        30.13S HAZE
CHARLESTON     FOG       65  63  93 CALM      30.15R VSB 1/2
PINEVILLE*     MOSUNNY   67  65  94 MISG      30.22S
BECKLEY        SUNNY     70  63  78 CALM      30.20R
BLUEFIELD      SUNNY     67  62  84 CALM      30.22S
LOGAN CO APT*  FOG       66  66 100 CALM      30.16S VSB 1/2
$$

VAZ002-007-008-TNZ017-027-036-066-071-221500
...SOUTHWEST VIRGINIA/EAST TENNESSEE...

CITY           SKY/WX    TMP DP  RH WIND       PRES   REMARKS
WISE*          SUNNY     73  63  68 CALM      30.22S
JONESVILLE*      N/A     72  64  78 CALM      30.17S
ABINGDON*      CLOUDY    73  67  81 SE3       30.18S
BRISTOL        MOSUNNY   71  65  81 CALM      30.16S
MORRISTOWN*    SUNNY     75  64  69 CALM      30.13S
SEVIERVILLE*   SUNNY     72  63  73 CALM      30.12S
KNOXVILLE      MOSUNNY   72  64  76 NE3       30.12R
LAFOLLETTE*    SUNNY     72  68  88 CALM      30.17S
OAK RIDGE      SUNNY     74  67  78 CALM      30.13S
CROSSVILLE     SUNNY     72  66  81 E3        30.16R
NASHVILLE      MOSUNNY   75  71  87 CALM      30.10R
$$

...KEY TO REMARKS...
VSB - VISIBILITY IN MILES
WCI - WIND CHILL INDEX
HX  - HEAT INDEX

$$




USA.gov is the U.S. government's official web portal to all federal, state and local government web resources and services.